This demonstration page uses our WeatherBlox Daily Observations layout. Learn more.

Left ArrowRight Arrow

Hourly Observations for July 12, 2016

Temp ( °F °C ) Dew Point ( °F °C ) Humidity (%) Winds ( mph kmh ) Pressure ( in mb ) Visibility ( mi km ) Precip ( " mm )
12:04 am 00:04 Mostly Cloudy with Strong Thunderstorms 66 19 64 18 94 94 NW 35 56 29.74 1007 1 1 0.00 0.00
12:15 am 00:15 Cloudy with Strong Thunderstorms 66 19 63 17 88 88 W 7 11 29.74 1007 2 3 0.00 0.00
12:16 am 00:16 Cloudy with Strong Thunderstorms 66 19 63 17 88 88 WNW 5 7 29.71 1006 2 3 0.00 0.00
12:20 am 00:20 Cloudy with Strong Thunderstorms 66 19 63 17 88 88 S 5 7 29.71 1006 2 3 0.00 0.00
12:32 am 00:32 Cloudy with Thunderstorms 66 19 63 17 88 88 ESE 13 20 29.71 1006 4 6 0.00 0.00
12:58 am 00:58 Mostly Cloudy with Thunderstorms 66 18.8 63 17 89 89 S 12 19 29.68 1005 10 16 0.67 17.02
1:58 am 01:58 Mostly Cloudy with Thunderstorms 66 18.7 64 17.8 95 95 S 6 9 29.72 1007 10 16 0.04 1.02
2:30 am 02:30 Cloudy 66 19 64 18 94 94 E 8 13 29.71 1006 10 16 0.00 0.00
2:48 am 02:48 Clear 66 19 64 18 94 94 WNW 5 7 29.71 1006 10 16 0.00 0.00
2:58 am 02:58 Clear 66 18.9 65 18.2 96 96 W 6 9 29.70 1006 10 16 0.00 0.00
3:58 am 03:58 Clear 65 18.4 64 17.8 96 96 WSW 1 2 29.75 1008 10 16 0.00 0.00
4:58 am 04:58 Clear 65 18.5 65 18.1 98 98 E 3 6 29.78 1008 10 16 0.00 0.00
5:58 am 05:58 Clear 66 19 66 18.9 99 99 SE 6 9 29.81 1010 10 16 0.00 0.00
6:58 am 06:58 Sunny 66 19.1 66 18.8 98 98 S 1 2 29.83 1010 10 16 0.00 0.00
7:58 am 07:58 Sunny 68 20.1 66 18.9 93 93 VRB 3 6 29.83 1010 10 16 0.00 0.00
8:58 am 08:58 Sunny 70 21.1 66 19 88 88 SSE 5 7 29.86 1011 10 16 0.00 0.00
9:58 am 09:58 Mostly Sunny 72 22 66 18.9 83 83 NNW 2 4 29.88 1012 10 16 0.00 0.00
10:58 am 10:58 Sunny 76 24.2 66 18.8 72 72 SSW 3 6 29.88 1012 10 16 0.00 0.00
11:58 am 11:58 Sunny 79 26.2 65 18.6 63 63 VRB 3 6 29.87 1012 10 16 0.00 0.00
12:58 pm 12:58 Sunny 82 27.8 66 19 59 59 VRB 6 9 29.87 1012 10 16 0.00 0.00
1:58 pm 13:58 Mostly Sunny 82 27.9 68 19.8 61 61 SSW 6 9 29.86 1011 10 16 0.00 0.00
2:58 pm 14:58 Partly Cloudy 84 28.8 69 20.8 62 62 W 5 7 29.86 1011 10 16 0.00 0.00
3:58 pm 15:58 Mostly Sunny 84 29.1 69 20.8 61 61 SW 5 7 29.85 1011 10 16 0.00 0.00
4:58 pm 16:58 Partly Cloudy 85 29.7 71 21.4 61 61 SW 8 13 29.83 1010 10 16 0.00 0.00
5:58 pm 17:58 Mostly Sunny 86 29.8 70 21.2 60 60 S 7 11 29.82 1010 10 16 0.00 0.00
6:58 pm 18:58 Sunny 85 29.3 69 20.7 60 60 S 6 9 29.81 1009 10 16 0.00 0.00
7:58 pm 19:58 Sunny 81 27.4 72 22.3 74 74 S 9 15 29.82 1010 10 16 0.00 0.00
8:58 pm 20:58 Mostly Clear 79 26 72 22.1 79 79 S 7 11 29.83 1010 10 16 0.00 0.00
9:58 pm 21:58 Cloudy 77 25.1 72 22 83 83 SSE 7 11 29.84 1010 10 16 0.00 0.00
10:58 pm 22:58 Clear 75 24 72 22 89 89 SSE 7 11 29.86 1011 10 16 0.00 0.00
11:58 pm 23:58 Clear 75 23.7 72 22.2 91 91 S 7 11 29.87 1011 10 16 0.00 0.00

Powered by AerisWeather